Home   Weather   Bergen   Past weeks

Flag for Norway Past Weather in Bergen, Norway — Yesterday and Last 2 Weeks

Now
58 °F

Cool.


Feels Like: 58 °F
Forecast: 50 / 63 °F
Wind: 2 mph from Northwest

Location: Bergen / Florida

Current Time: Jul 28, 2017 at 3:02:53 am

Latest Report: Jul 28, 2017 at 2:00 am


Visibility: N/A

Pressure: 29.54 "Hg

Humidity: 76%

Dew Point: 50 °F

Location of BergenLocation

Past Weather in Bergen — Graph

°F

Bergen Temperature Yesterday

Maximum temperature yesterday: 65 °F (at 6:00 pm)
Minimum temperature yesterday: 58 °F (at 9:00 am)
Average temperature yesterday: 61 °F

High & Low Weather Summary for the Past Weeks

 TemperatureHumidityPressure
High82 °F (Jul 20, 7:00 pm)88% (Jul 16, 5:00 am)30.14 "Hg (Jul 16, 5:00 am)
Low50 °F (Jul 17, 1:00 am)29% (Jul 20, 3:00 pm)29.41 "Hg (Jul 27, 8:00 am)
Average62 °F71%29.89 "Hg
* Reported Jul 13 1:00 am — Jul 28 1:00 am, Bergen. Weather by CustomWeather, © 2017

Note: Actual official high and low records may vary slightly from our data, if they occured in-between our weather recording intervals... More about our weather records

Advertising

Bergen Weather History for the Previous 24 Hours

Scroll right to see more
 ConditionsComfort  
Time TempWeatherWind HumidityBarometerVisibility
1:00 am
Fri, Jul 28
58 °FCool.2 mph75%29.55 "HgN/A
12:00 am59 °FCool.3 mph72%29.56 "HgN/A
11:00 pm
Thu, Jul 27
59 °FOvercast.2 mph70%29.56 "Hg31 mi
10:00 pm60 °FCool.2 mph68%29.56 "HgN/A
9:00 pm61 °FCool.3 mph69%29.54 "HgN/A
8:00 pm62 °FPartly sunny.5 mph70%29.54 "Hg22 mi
7:00 pm64 °FMild.2 mph65%29.54 "HgN/A
6:00 pm65 °FMild.3 mph65%29.53 "HgN/A
5:00 pm64 °FScattered clouds.3 mph66%29.50 "Hg17 mi
4:00 pm65 °FMild.6 mph66%29.50 "HgN/A
3:00 pm64 °FMild.5 mph72%29.50 "HgN/A
2:00 pm60 °FSprinkles. Low clouds.3 mph84%29.47 "Hg12 mi
1:00 pm59 °FCool.6 mph85%29.47 "HgN/A
12:00 pm61 °FCool.3 mph77%29.47 "HgN/A
11:00 am60 °FLight rain. Overcast.6 mph78%29.44 "Hg12 mi
10:00 am61 °FCool.3 mph84%29.41 "HgN/A
9:00 am58 °FCool.1 mph84%29.41 "HgN/A
8:00 am59 °FOvercast.2 mph86%29.41 "Hg17 mi
7:00 am60 °FCool.2 mph87%29.44 "HgN/A
6:00 am60 °FCool.1 mph87%29.47 "HgN/A
5:00 am61 °FCool.1 mph86%29.50 "HgN/A
4:00 am61 °FCool.1 mph86%29.50 "HgN/A
3:00 am61 °FCool.1 mph85%29.53 "HgN/A
Weather by CustomWeather, © 2017

See weather overviewHow to use our weather pages